Stations météo

réclame
Mon MeteoGroup
Aultbea, Grande-Bretagne (3034): Température de l'air & dewpoint: 09.07.2019 23:00:00 - 15.07.2019 23:00:00 (BST)Aultbea, Grande-Bretagne (3034): Température de l'air -20cm & Température de l'air -100cm: 09.07.2019 23:00:00 - 15.07.2019 23:00:00 (BST)Aultbea, Grande-Bretagne (3034): Vitesse du vent: 09.07.2019 23:00:00 - 15.07.2019 23:00:00 (BST)Aultbea, Grande-Bretagne (3034): Direction du vent: 09.07.2019 23:00:00 - 15.07.2019 23:00:00 (BST)Aultbea, Grande-Bretagne (3034): reduced air pressure: 09.07.2019 23:00:00 - 15.07.2019 23:00:00 (BST)Aultbea, Grande-Bretagne (3034): visibility: 09.07.2019 23:00:00 - 15.07.2019 23:00:00 (BST)Aultbea, Grande-Bretagne (3034): Quantités de précipitations: 09.07.2019 23:00:00 - 15.07.2019 23:00:00 (BST)
Date & Time tt [°C] td [°C] tt -20cm [°C] tt -100cm [°C] ff [km/h] ff [knt] dd ppp [hPa] vv [km] rr [mm]
15.07.2019 23:00:00 15,0 11,2 - - 2 1 SW 1018,7 50 0,0
15.07.2019 22:00:00 15,5 11,1 - - 9 5 NE 1018,9 50 0,0
15.07.2019 21:00:00 17,1 11,3 - - 4 2 NE 1019,2 50 0,0
15.07.2019 20:00:00 18,5 11,8 - - 4 2 N 1019,2 35 0,0
15.07.2019 19:00:00 18,3 11,8 - - 5 3 NNW 1019,3 35 0,0
15.07.2019 18:00:00 18,9 11,1 - - 9 5 NW 1019,5 45 0,0
15.07.2019 17:00:00 19,6 11,0 - - 11 6 WNW 1019,7 30 0,0
15.07.2019 16:00:00 19,6 11,1 - - 11 6 WNW 1019,9 28 0,0
15.07.2019 15:00:00 20,1 12,5 - - 11 6 NW 1020,1 40 0,0
15.07.2019 14:00:00 19,6 13,1 - - 11 6 WNW 1020,4 50 0,0
15.07.2019 13:00:00 19,5 13,2 - - 9 5 WNW 1020,7 30 0,0
15.07.2019 12:00:00 18,5 13,3 - - 11 6 WNW 1021,0 35 0,0
15.07.2019 11:00:00 16,6 12,6 - - 13 7 WNW 1021,3 50 0,0
15.07.2019 10:00:00 17,9 12,8 17,2 14,7 4 2 W 1021,4 50 0,0
15.07.2019 09:00:00 16,4 11,7 - - 4 2 SSW 1021,8 40 0,0
15.07.2019 08:00:00 14,8 11,2 - - 4 2 SSE 1022,0 40 0,0
15.07.2019 07:00:00 14,3 12,1 - - 2 1 E 1022,1 45 0,0
15.07.2019 06:00:00 10,9 10,3 - - 4 2 ESE 1022,3 50 0,0
15.07.2019 05:00:00 10,5 9,9 - - 5 3 ESE 1022,6 50 0,0
15.07.2019 04:00:00 10,1 9,8 - - 9 5 E 1022,9 50 0,0
15.07.2019 03:00:00 9,5 9,3 - - 5 3 ENE 1023,5 30 0,0
15.07.2019 02:00:00 9,1 8,7 - - 4 2 E 1023,8 30 0,0
15.07.2019 01:00:00 8,9 8,4 - - 0 0 N 1024,0 18 0,0
15.07.2019 00:00:00 10,3 9,5 - - 2 1 NE 1024,3 45 0,0
14.07.2019 23:00:00 11,2 9,9 - - 2 1 NNW 1024,5 45 0,0
14.07.2019 22:00:00 12,5 9,2 - - 4 2 NNE 1024,6 45 0,0
14.07.2019 21:00:00 14,2 10,1 - - 13 7 NNE 1024,8 40 0,0
14.07.2019 20:00:00 15,8 10,4 - - 9 5 NNE 1025,1 40 0,0
14.07.2019 19:00:00 16,1 9,8 - - 9 5 N 1025,3 40 0,0
14.07.2019 18:00:00 17,5 11,1 - - 9 5 N 1025,5 50 0,0
14.07.2019 17:00:00 17,7 10,7 - - 9 5 N 1025,7 40 0,0
14.07.2019 16:00:00 17,2 10,8 - - 9 5 NW 1026,0 50 0,0
14.07.2019 15:00:00 16,8 10,5 - - 13 7 WNW 1026,3 50 0,0
14.07.2019 14:00:00 16,0 9,0 - - 11 6 WNW 1026,4 35 0,0
14.07.2019 13:00:00 15,2 9,5 - - 11 6 WNW 1026,5 40 0,0
14.07.2019 12:00:00 15,2 9,9 - - 11 6 WNW 1026,5 35 0,0
14.07.2019 11:00:00 14,5 8,9 - - 9 5 WNW 1026,6 50 0,0
14.07.2019 10:00:00 14,7 8,6 17,2 14,5 5 3 WSW 1026,5 35 0,0
14.07.2019 09:00:00 14,2 9,1 - - 5 3 S 1026,5 40 0,0
14.07.2019 08:00:00 13,8 8,2 - - 2 1 SW 1026,5 50 0,0
14.07.2019 07:00:00 13,2 9,3 - - 4 2 SE 1026,2 50 0,0
14.07.2019 06:00:00 12,2 9,9 - - 2 1 NE 1026,2 50 0,0
14.07.2019 05:00:00 12,2 9,5 - - 4 2 N 1026,4 50 0,0
14.07.2019 04:00:00 12,6 8,7 - - 5 3 WNW 1026,5 45 0,0
14.07.2019 03:00:00 12,6 9,6 - - 8 4 W 1026,8 50 0,0
14.07.2019 02:00:00 12,6 9,4 - - 5 3 WNW 1027,0 40 0,0
14.07.2019 01:00:00 12,5 10,5 - - 4 2 N 1026,9 35 0,0
14.07.2019 00:00:00 12,9 10,7 - - 4 2 N 1026,7 45 0,0
13.07.2019 23:00:00 13,1 10,2 - - 4 2 NW 1026,6 50 0,0
13.07.2019 22:00:00 13,4 9,8 - - 4 2 NW 1026,5 45 0,0
13.07.2019 21:00:00 13,7 10,3 - - 4 2 NW 1026,2 45 0,0
13.07.2019 20:00:00 14,0 10,2 - - 9 5 WNW 1026,0 35 0,0
13.07.2019 19:00:00 15,1 11,2 - - 11 6 WNW 1025,8 30 0,0
13.07.2019 18:00:00 16,1 11,9 - - 11 6 W 1025,6 45 0,0
13.07.2019 17:00:00 15,4 11,4 - - 13 7 W 1025,6 40 0,0
13.07.2019 16:00:00 16,2 11,2 - - 15 8 W 1025,2 40 0,0
13.07.2019 15:00:00 15,7 11,5 - - 9 5 WNW 1025,0 35 0,0
13.07.2019 14:00:00 14,2 11,5 - - 11 6 WNW 1024,9 8 0,0
13.07.2019 13:00:00 15,2 11,6 - - 15 8 WNW 1024,6 50 0,0
13.07.2019 12:00:00 14,9 12,5 - - 13 7 WNW 1024,3 40 0,0
13.07.2019 11:00:00 14,5 11,7 - - 15 8 W 1024,1 35 0,0
13.07.2019 10:00:00 13,4 12,2 16,7 14,2 11 6 W 1024,1 23 0,0
13.07.2019 09:00:00 13,0 12,1 - - 13 7 W 1023,8 8 0,2
13.07.2019 08:00:00 13,3 12,7 - - 8 4 WNW 1023,1 19 0,0
13.07.2019 07:00:00 12,5 12,1 - - 11 6 NW 1022,9 24 0,2
13.07.2019 06:00:00 13,2 12,5 - - 9 5 W 1022,6 22 0,0
13.07.2019 05:00:00 13,2 12,6 - - 4 2 WNW 1022,1 25 0,0
13.07.2019 04:00:00 13,4 12,8 - - 9 5 W 1022,1 27 0,0
13.07.2019 03:00:00 13,3 12,8 - - 5 3 NW 1022,2 14 0,0
13.07.2019 02:00:00 13,4 12,9 - - 5 3 WNW 1021,8 15 0,0
13.07.2019 01:00:00 13,5 13,1 - - 5 3 WNW 1021,4 12 0,0
13.07.2019 00:00:00 13,8 13,3 - - 5 3 WNW 1021,3 6 0,0
12.07.2019 23:00:00 13,9 13,3 - - 0 0 N 1020,9 18 0,0
12.07.2019 22:00:00 14,1 13,4 - - 2 1 NW 1020,5 20 0,0
12.07.2019 21:00:00 13,7 12,6 - - 5 3 NW 1020,2 18 0,0
12.07.2019 20:00:00 - - - - - - - - 14 0,0
12.07.2019 19:00:00 - - - - - - - - 21 0,0
12.07.2019 18:00:00 - - - - - - - - 27 0,0
12.07.2019 17:00:00 - - - - - - - - 18 0,0
12.07.2019 16:00:00 - - - - - - - - 17 0,0
12.07.2019 15:00:00 - - - - - - - - 7 0,0
12.07.2019 14:00:00 - - - - - - - - 3,4 0,0
12.07.2019 13:00:00 - - - - - - - - 5 0,0
12.07.2019 12:00:00 - - - - - - - - 2,2 0,0
12.07.2019 11:00:00 14,1 13,4 - - 9 5 WSW 1015,9 1,9 0,2
12.07.2019 10:00:00 14,7 13,2 16,7 14,2 11 6 W 1015,3 30 0,0
12.07.2019 09:00:00 14,2 12,8 - - 9 5 W 1014,9 40 0,0
12.07.2019 08:00:00 14,0 12,9 - - 5 3 NW 1014,3 22 0,0
12.07.2019 07:00:00 13,9 13,0 - - 8 4 WSW 1013,6 35 0,0
12.07.2019 06:00:00 13,6 13,0 - - 2 1 NW 1013,2 30 0,0
12.07.2019 05:00:00 13,4 12,8 - - 2 1 NW 1012,7 30 0,0
12.07.2019 04:00:00 13,3 12,8 - - 2 1 NW 1012,3 30 0,0
12.07.2019 03:00:00 13,1 12,7 - - 8 4 N 1012,1 30 0,0
12.07.2019 02:00:00 12,6 12,2 - - 5 3 NNW 1011,7 27 0,0
12.07.2019 01:00:00 12,6 12,1 - - 5 3 NW 1011,3 21 0,0
12.07.2019 00:00:00 13,3 12,3 - - 8 4 WNW 1011,2 29 0,0
11.07.2019 23:00:00 14,2 12,5 - - 8 4 NW 1011,0 45 0,0
11.07.2019 22:00:00 15,0 12,5 - - 4 2 NW 1010,3 40 0,0
11.07.2019 21:00:00 15,7 12,3 - - 8 4 NW 1009,6 50 0,0
11.07.2019 20:00:00 16,6 12,5 - - 5 3 WNW 1009,4 28 0,0
11.07.2019 19:00:00 16,4 13,2 - - 8 4 NNE 1009,2 40 0,0
11.07.2019 18:00:00 16,9 12,8 - - 9 5 NW 1009,1 40 0,0
11.07.2019 17:00:00 17,2 14,2 - - 8 4 NNW 1008,9 50 0,0
11.07.2019 16:00:00 15,9 13,7 - - 9 5 NW 1008,8 50 0,0
11.07.2019 15:00:00 15,2 14,2 - - 9 5 NW 1008,5 35 0,0
11.07.2019 14:00:00 14,6 13,6 - - 13 7 NW 1008,5 6 0,4
11.07.2019 13:00:00 16,7 15,6 - - 9 5 W 1007,9 35 0,0
11.07.2019 12:00:00 17,6 15,9 - - 11 6 WNW 1007,5 50 0,0
11.07.2019 11:00:00 16,8 14,9 - - 4 2 WSW 1007,6 45 0,0
11.07.2019 10:00:00 16,4 15,1 16,2 14,0 4 2 SSW 1007,5 29 0,0
11.07.2019 09:00:00 16,2 15,3 - - 5 3 S 1007,6 45 0,6
11.07.2019 08:00:00 15,7 15,0 - - 2 1 WSW 1007,6 50 0,2
11.07.2019 07:00:00 14,9 14,4 - - 5 3 WSW 1007,3 45 0,0
11.07.2019 06:00:00 14,4 13,8 - - 0 0 N 1007,8 35 0,0
11.07.2019 05:00:00 14,6 14,1 - - 5 3 ESE 1008,0 45 0,2
11.07.2019 04:00:00 14,4 13,7 - - 5 3 E 1008,3 13 0,6
11.07.2019 03:00:00 14,4 13,6 - - 8 4 E 1008,9 45 0,0
11.07.2019 02:00:00 14,5 13,7 - - 4 2 ENE 1009,2 40 0,0
11.07.2019 01:00:00 14,7 13,9 - - 8 4 E 1009,6 50 0,0
11.07.2019 00:00:00 15,0 13,9 - - 8 4 S 1010,1 50 0,0
10.07.2019 23:00:00 14,9 13,8 - - 9 5 SSW 1010,3 50 0,0
10.07.2019 22:00:00 15,9 14,3 - - 13 7 S 1010,5 40 0,0
10.07.2019 21:00:00 16,1 14,7 - - 16 9 S 1010,8 50 0,0
10.07.2019 20:00:00 16,2 14,8 - - 13 7 S 1010,9 50 0,0
10.07.2019 19:00:00 16,4 14,9 - - 16 9 SSW 1011,1 50 0,0
10.07.2019 18:00:00 16,5 14,9 - - 11 6 S 1011,4 50 0,0
10.07.2019 17:00:00 16,6 15,4 - - 18 10 S 1011,7 50 0,2
10.07.2019 16:00:00 16,6 15,2 - - 18 10 S 1012,0 8 0,2
10.07.2019 15:00:00 16,8 15,8 - - 15 8 SSW 1012,3 10 0,6
10.07.2019 14:00:00 16,4 15,6 - - 13 7 S 1012,5 9 2,6
10.07.2019 13:00:00 17,0 15,9 - - 13 7 SSW 1012,7 35 0,8
10.07.2019 12:00:00 17,0 14,6 - - 11 6 SSW 1012,8 17 0,0
10.07.2019 11:00:00 16,5 14,2 - - 15 8 SSW 1012,9 50 0,0
10.07.2019 10:00:00 16,8 14,8 15,9 13,9 13 7 S 1013,2 45 0,0
10.07.2019 09:00:00 16,9 15,0 - - 11 6 S 1013,2 50 0,0
10.07.2019 08:00:00 16,1 14,7 - - 8 4 ESE 1013,3 50 0,0
10.07.2019 07:00:00 15,3 14,3 - - 5 3 E 1013,3 50 0,0
10.07.2019 06:00:00 14,9 13,9 - - 9 5 S 1013,6 50 0,8
10.07.2019 05:00:00 14,7 13,8 - - 4 2 SSW 1013,8 7 0,2
10.07.2019 04:00:00 14,6 13,9 - - 5 3 W 1013,9 50 0,0
10.07.2019 03:00:00 14,4 13,8 - - 11 6 S 1014,4 45 2,4
10.07.2019 02:00:00 14,6 13,8 - - 9 5 WSW 1014,7 7 0,8
10.07.2019 01:00:00 15,3 14,1 - - 5 3 WSW 1014,7 50 0,0
10.07.2019 00:00:00 15,4 14,4 - - 18 10 SSW 1014,8 50 0,2
09.07.2019 23:00:00 15,3 14,6 - - 13 7 S 1015,3 50 0,0

tt = Température de l'air
td = dewpoint
tt -20cm = Température de l'air -20cm
tt -100cm = Température de l'air -100cm
ff = Vitesse du vent
dd = Direction du vent
ppp = reduced air pressure
vv = visibility
rr = Quantités de précipitations

stations d'obs. à proximité